Regional Weather Roundup
Issued by NWS

Home | Current Version | Previous Version | Text Only | Print | Product List | Glossary Off
Versions: 1 2 3 4 5 6 7 8 9 10 11 12 13 14 15 16 17 18 19 20 21 22 23 24 25 26 27 28 29 30 31 32 33 34 35 36 37 38 39 40 41 42 43 44 45 46 47 48 49 50

000
ASUS43 KMKX 240420
RWRWI

WISCONSIN REGIONAL WEATHER ROUNDUP
NATIONAL WEATHER SERVICE MILWAUKEE/SULLIVAN WI
1000 PM CST FRI FEB 23 2018

NOTE: "FAIR" INDICATES FEW OR NO CLOUDS BELOW 12,000 FEET WITH NO
SIGNIFICANT WEATHER AND/OR OBSTRUCTIONS TO VISIBILITY.

WIZ001-002-006>008-014>016-023>028-240500-
NORTHWEST WISCONSIN

CITY           SKY/WX    TMP DP  RH WIND       PRES   REMARKS
SUPERIOR ARPT  FAIR      29  19  65 W6        30.23S WCI  23
ASHLAND        CLOUDY    30  23  75 SW6       30.22R WCI  24
HAYWARD        CLOUDY    19  17  92 S5        30.23R WCI  12
SIREN          FAIR      23  19  84 W7        30.26R WCI  15
CUMBERLAND     FOG       10   9  92 SW5       30.25R VSB 1/4 WCI   2
RICE LAKE      FAIR      11  10  93 W3        30.27R
CHETEK         FAIR      18  16  92 CALM      30.27R FOG
LADYSMITH      FAIR      19  18  95 S5        30.26R FOG     WCI  12
EAU CLAIRE     FAIR      17  15  92 SW6       30.28R FOG     WCI   9
MENOMONIE      FAIR      19  17  90 W3        30.28S
NEW RICHMOND   FAIR      16  13  89 SW5       30.28S FOG     WCI   8
OSCEOLA        FAIR      19  15  84 W7        30.31S WCI  10
$$

WIZ003>005-009-010-017-018-240500-
NORTH CENTRAL WISCONSIN

CITY           SKY/WX    TMP DP  RH WIND       PRES   REMARKS
MANITOWISH WTR CLOUDY    26  24  93 W5        30.18S WCI  20
ARBOR VITAE    CLOUDY    29  25  85 W5        30.19R WCI  24
WOODRUFF       CLOUDY    29  25  85 W5        30.19R WCI  24
RHINELANDER    CLOUDY    27  22  81 W8        30.20R WCI  19
EAGLE RIVER    CLOUDY    27  22  79 W7        30.18S WCI  20
LAND O LAKES   CLOUDY    28  23  82 W6        30.19R WCI  21
PHILLIPS       FAIR      13  13  98 CALM      30.21R FOG
TOMAHAWK       FAIR      19  18  93 CALM      30.22R
MEDFORD        FAIR      20  18  93 SW5       30.23R FOG     WCI  14
MERRILL        FAIR      22  21  93 W3        30.24R
$$

WIZ029-030-035-036-043>047-240500-
CENTRAL WISCONSIN

CITY           SKY/WX    TMP DP  RH WIND       PRES   REMARKS
WAUSAU         FAIR      25  20  81 W8        30.23R WCI  16
MOSINEE        CLOUDY    27  21  80 W7        30.26R WCI  19
MARSHFIELD     FAIR      22  19  89 W5        30.24R FOG     WCI  16
STEVENS POINT  CLOUDY    27  20  75 NW7       30.27R WCI  19
WAUPACA        CLOUDY    32  22  66 NW13      30.27R WCI  22
WAUTOMA        CLOUDY    29  22  75 NW12      30.28R WCI  19
WISC RAPIDS    CLOUDY    28  20  71 NW9       30.28R WCI  19
CAMP DOUGLAS   FAIR      24  21  86 NW3       30.28S
$$

WIZ011>013-019>022-031-037>040-048>050-240500-
NORTHEAST WISCONSIN

CITY           SKY/WX    TMP DP  RH WIND       PRES   REMARKS
ANTIGO         CLOUDY    26  21  80 NW9       30.22R WCI  17
SHAWANO        CLOUDY    33  23  67 W6        30.25R WCI  27
OCONTO         CLOUDY    32  23  67 NW6       30.24R WCI  27
STURGEON BAY   CLOUDY    33  23  66 NW7       30.24R WCI  27
GREEN BAY      CLOUDY    32  22  66 NW14      30.26R WCI  22
MANITOWOC      CLOUDY    32  24  72 NW9       30.26R WCI  24
APPLETON       CLOUDY    30  19  64 NW13      30.24R WCI  20
CLINTONVILLE   CLOUDY    31  22  68 NW9       30.26S WCI  23
OSHKOSH        CLOUDY    31  23  72 NW8       30.26R WCI  23
$$

WIZ032>034-041-042-053>061-240500-
SOUTHWEST WISCONSIN

CITY           SKY/WX    TMP DP  RH WIND       PRES   REMARKS
LA CROSSE      NOT AVBL
SPARTA         CLOUDY    26  22  85 W5        30.30F WCI  20
VIROQUA        CLOUDY    24  24  97 N8        30.25F WCI  16
BOSCOBEL       FAIR      28  22  78 NW3       30.28F
PRAIRIE DU CHI FAIR      27  21  80 CALM      30.29S
PLATTEVILLE    FAIR      28  26  92 NW3       30.27R
$$

WIZ056-057-062-063-064-067-068-240500-
SOUTH CENTRAL WISCONSIN

CITY           SKY/WX    TMP DP  RH WIND       PRES   REMARKS
REEDSBURG      MOCLDY    27  23  84 N10       30.26S WCI  18
BARABOO/DELLS  MOCLDY    28  23  82 NW7       30.26S WCI  21
LONE ROCK      FAIR      30  24  78 NW3       30.27S HAZE
MINERAL POINT  FAIR      30  28  93 NW3       30.25R
MADISON        FAIR      28  24  85 N5        30.26R WCI  23
MIDDLETON      FAIR      32  27  83 NW5       30.26R WCI  27
WATERTOWN      FAIR      29  26  88 N3        30.26R
MONROE         FAIR      30  27  86 W6        30.25S WCI  24
JANESVILLE     FAIR      30  30 100 NW5       30.26S WCI  25
$$

WIZ051-052-058>065-066-070>072-240500-
SOUTHEAST WISCONSIN

CITY           SKY/WX    TMP DP  RH WIND       PRES   REMARKS
MILWAUKEE      CLOUDY    36  29  75 W3        30.26R
WAUKESHA       MOCLDY    30  27  86 NW8       30.27R WCI  23
MILWAUKEE/TIMM FAIR      32  25  74 NW5       30.27R WCI  27
RACINE         CLOUDY    33  30  88 W3        30.27S
BURLINGTON     FAIR      31  28  92 CALM      30.26S
KENOSHA        FAIR      32  28  85 W5        30.25S WCI  27
FOND DU LAC    CLOUDY    32  23  69 NW14      30.25S WCI  22
SHEBOYGAN      CLOUDY    32  26  78 NW9       30.25R WCI  24
WEST BEND      FAIR      30  28  93 CALM      30.25R
JUNEAU         FAIR      29  24  81 NW3       30.27R
$$

LSZ147-162-240500-
LAKE SUPERIOR

STATION/POSITION TIME  TEMP    WIND        PRES    WAVE
                       AIR SEA DIR/SP/G            HT/PER
                 (UTC) (F)     (DEG/KT/KT) (MB)    (FT/S)
DEVILS ISLAND    0400   30     290/ 13/ 14 1023.6R
SAXON HARBOR     0340   31     210/  3/  6 1023.0R
$$

LMZ867-665-643>646-240500-
LAKE MICHIGAN

STATION/POSITION TIME  TEMP    WIND        PRES    WAVE
                       AIR SEA DIR/SP/G            HT/PER
                 (UTC) (F)     (DEG/KT/KT) (MB)    (FT/S)
NORTHPORT PIER   0340   34                 1023.0R
KEWAUNEE LAKESHO 0354   33     310/  4/  5 1023.5R
SHEBOYGAN LAKESH 0400   33     320/ 10/ 12 1024.9S
PORT WASHINGTON  0330   33     320/  2/  4 1025.7R
KENOSHA   LAKESH 0400   33     290/  4/  6 1024.7
$$

TC  - TEMPERATURE IN CELSIUS
VSB - VISIBILITY IN STATUTE MILES
WCI - WIND CHILL INDEX
HX  - HEAT INDEX




USA.gov is the U.S. government's official web portal to all federal, state and local government web resources and services.